Theta_e
279 278 278 278 279 281 283 286 288 283 278 277 275 276 276 276 276 275 275 276 277 279 280 281 283 284 285 286 287 288 289 289 289 290 290 291 291 292
277 277 276 277 277 277 278 279 282 285 278 278 275 276 276 275 275 275 275 275 275 277 278 280 281 283 283 284 285 286 287 287 288 288 289 289 290 290
276 275 275 276 275 276 276 277 277 281 276 275 277 276 276 274 274 274 274 274 275 275 277 279 281 281 282 282 283 284 285 285 286 286 287 287 288 289
274 274 274 276 275 276 276 275 275 277 277 274 275 274 274 273 273 272 273 273 273 274 277 278 279 279 280 281 281 282 282 283 283 284 284 285 286 286
274 274 274 274 273 275 275 274 274 274 275 274 272 273 273 273 272 272 272 273 273 274 275 276 277 278 278 279 280 280 280 281 281 281 282 282 283 285
276 276 275 274 273 274 274 274 274 273 273 272 271 271 272 272 272 270 269 272 271 273 274 274 275 275 276 277 278 278 278 279 279 280 281 282 283 283
275 276 277 277 277 275 274 273 273 272 272 271 270 271 270 269 268 269 268 270 271 272 272 272 272 272 272 274 274 275 276 278 279 280 281 281 282 283
273 274 274 274 275 275 275 275 274 272 271 271 270 269 269 268 269 268 268 268 267 273 270 270 271 270 271 272 274 275 277 278 279 280 280 281 282 282
273 274 273 274 274 272 273 272 272 273 272 271 269 269 268 269 269 268 269 268 267 270 268 266 270 269 272 273 275 276 277 278 279 280 280 280 281 281
272 273 273 274 275 273 272 271 271 270 271 271 271 271 271 272 271 270 269 268 268 268 269 265 270 269 271 272 274 275 276 277 278 278 279 279 279 279
271 272 273 274 275 276 273 271 270 270 272 273 274 274 273 273 272 269 266 265 264 266 268 267 268 268 270 271 272 274 275 275 276 276 276 277 277 277
271 271 271 273 275 275 273 270 268 270 270 269 268 267 268 267 268 267 266 263 263 264 270 266 266 267 265 270 271 271 270 272 273 274 275 275 275 273
271 270 271 272 274 274 274 271 269 273 268 266 265 266 266 266 267 267 266 264 263 264 268 268 265 264 264 264 267 268 269 269 269 270 272 273 273 273
271 271 271 273 273 273 272 271 273 271 267 265 265 265 265 265 266 266 265 265 265 264 266 265 262 263 262 261 261 266 268 269 268 268 269 271 273 273
273 272 273 272 271 270 269 270 268 266 266 264 264 264 264 264 264 263 265 265 265 265 266 265 264 264 263 262 262 263 265 267 268 268 269 269 269 269
273 271 270 269 269 268 266 267 266 265 264 263 263 264 263 263 263 264 263 264 263 264 267 267 266 265 263 264 264 263 265 263 267 267 268 268 269 269
269 270 269 268 267 267 267 266 266 265 264 264 263 262 262 262 262 263 263 263 261 262 263 265 267 267 266 264 262 264 264 265 266 267 267 266 269 271
270 268 267 267 265 265 265 265 265 264 265 264 263 262 261 261 261 262 262 261 261 261 262 264 264 264 265 266 268 265 265 265 267 268 269 267 268 270
267 266 266 266 265 265 264 264 263 264 263 261 261 261 260 260 259 260 260 261 260 261 263 264 263 263 260 259 266 270 266 267 267 267 267 267 266 267
267 265 265 266 265 264 264 264 264 263 262 262 261 261 260 259 258 259 260 259 260 261 261 262 263 263 261 261 262 265 270 266 265 265 265 268 270 273
267 266 265 265 264 264 264 263 262 261 261 260 259 259 259 258 258 258 259 258 259 259 259 261 264 267 266 265 261 262 267 271 270 268 268 266 268 270
266 266 266 266 265 264 263 262 261 261 261 260 260 260 259 259 258 258 258 259 259 260 261 263 264 265 264 263 262 263 264 267 270 274 275 275 271 268
267 267 266 266 265 264 263 262 261 260 260 260 259 259 259 258 259 259 259 259 260 260 261 261 263 265 264 263 262 263 264 268 271 271 273 276 276 276
Wind_Speed
11 13 11 8 7 7 6 3 4 5 2 3 3 3 3 2 5 4 5 9 9 10 13 14 15 16 18 18 19 19 21 22 22 24 26 27 28 28
10 14 12 9 9 8 7 6 6 4 5 2 2 3 3 1 3 5 6 9 9 11 13 15 17 18 18 18 20 21 22 23 25 26 28 28 28 29
13 13 15 12 9 9 8 7 6 4 7 3 3 3 2 3 4 5 6 7 7 12 14 18 19 18 18 20 21 22 24 25 27 28 28 30 30 30
13 12 13 9 11 10 9 10 9 8 4 6 3 1 3 3 5 7 5 6 8 11 16 20 18 18 20 22 23 25 26 28 28 30 30 29 31 31
11 12 12 12 11 10 11 8 7 7 6 4 3 0 1 3 6 6 6 7 7 14 18 18 18 20 22 24 25 26 27 29 30 30 31 29 29 29
13 11 12 13 13 10 8 8 5 5 5 4 2 1 1 2 6 7 8 7 10 10 13 14 19 20 24 26 26 27 29 31 30 29 30 30 30 30
13 13 14 12 18 12 6 7 4 4 3 3 3 3 3 6 7 6 9 11 11 10 7 9 12 12 12 18 21 26 28 30 31 32 31 30 30 30
10 9 9 10 15 16 14 12 10 5 4 3 3 4 6 6 7 8 9 10 7 2 11 13 12 12 11 10 21 26 30 33 32 31 30 31 32 32
9 8 8 6 7 7 10 10 10 11 8 5 5 6 8 8 10 12 12 11 11 11 14 13 9 12 10 11 25 27 31 31 31 30 31 32 34 34
9 8 7 7 6 5 7 6 5 5 4 3 5 7 9 10 12 12 13 14 11 11 12 12 8 11 11 11 26 26 27 26 27 28 32 34 36 35
6 7 7 6 9 9 5 6 6 6 5 9 13 16 19 20 15 9 8 9 10 8 9 10 8 15 11 11 9 17 21 23 26 31 35 34 35 36
5 5 6 7 10 10 7 6 7 8 8 7 9 12 12 12 14 9 7 8 9 9 3 8 10 10 10 7 7 10 11 20 28 33 34 33 33 16
3 3 4 8 9 10 9 4 7 10 6 7 8 8 8 8 7 6 7 7 9 11 12 10 9 11 10 12 8 10 13 14 14 17 27 32 33 27
3 3 4 10 10 11 8 10 13 9 6 7 7 8 7 7 7 7 10 10 11 16 16 12 10 12 13 16 17 10 11 13 15 15 13 21 30 32
4 6 9 10 9 7 8 12 8 5 5 7 7 8 7 9 11 10 11 12 14 16 14 15 14 14 13 16 18 15 17 13 15 14 11 12 14 13
5 4 7 9 8 7 5 5 4 5 6 8 8 9 9 9 10 9 10 10 11 12 15 15 15 16 15 15 16 17 14 15 15 15 15 14 14 14
3 5 5 6 6 6 6 6 6 6 7 7 8 9 10 10 10 9 10 10 12 13 14 13 13 15 14 18 17 15 16 18 16 16 16 17 15 14
5 6 7 6 7 7 8 8 7 7 7 8 9 9 10 10 10 10 10 10 12 13 14 13 13 13 13 14 24 16 16 19 16 17 16 16 17 19
5 7 7 7 8 7 8 8 9 8 8 8 9 10 10 10 11 11 11 11 13 13 13 13 13 13 16 18 11 20 15 16 15 18 15 14 17 20
7 8 8 8 8 8 8 9 9 9 8 9 10 10 10 10 11 12 11 13 13 14 14 13 13 13 14 18 20 17 25 18 15 18 19 16 18 34
8 9 8 8 8 8 8 8 9 10 10 9 10 9 10 10 12 12 13 18 18 14 16 15 14 20 15 15 15 19 15 24 25 19 20 17 19 18
8 9 8 8 9 8 9 8 9 10 10 10 10 10 10 10 12 13 13 14 14 14 16 15 16 12 13 14 18 24 21 20 21 32 33 29 15 14
9 9 8 8 8 8 8 9 9 10 10 10 10 10 10 11 12 13 14 14 15 15 16 16 14 12 14 15 20 19 24 22 16 18 18 19 24 25
Wind_Direction
68 66 68 48 41 37 41 73 108 136 128 156 158 181 137 137 33 355 346 342 330 335 336 330 322 314 311 306 301 298 299 299 298 298 297 296 295 293
67 64 65 54 48 46 42 44 41 93 127 149 164 154 150 76 50 338 332 315 317 324 322 316 309 307 304 300 299 301 300 300 299 298 294 292 292 291
64 66 63 62 52 44 46 41 48 49 107 105 96 138 172 340 340 336 315 315 313 311 308 304 304 302 299 301 300 300 298 297 296 295 294 293 291 290
69 73 69 65 65 59 55 47 46 33 85 127 127 127 248 302 316 315 301 298 297 300 300 305 301 296 296 300 301 299 299 297 294 294 294 293 294 293
62 66 76 73 63 62 62 61 50 51 54 105 124 154 270 274 312 309 307 306 307 306 306 303 299 302 299 297 295 293 291 290 293 294 295 294 290 286
77 65 70 67 68 68 70 68 70 84 80 96 97 73 313 313 313 322 324 325 315 307 301 287 289 288 288 288 290 289 290 289 294 296 293 291 290 288
62 61 63 75 78 73 74 61 60 74 68 58 50 5 336 340 340 323 311 316 305 286 284 289 301 291 280 282 280 280 284 291 291 291 292 292 291 289
86 86 84 65 65 67 66 60 44 36 50 33 11 342 325 331 323 312 307 309 320 335 309 291 291 279 272 269 268 277 283 289 289 289 292 294 292 289
82 83 74 69 65 55 47 40 32 24 19 353 326 321 309 309 307 302 300 304 293 301 299 287 288 274 272 277 283 281 282 281 285 295 296 296 295 293
73 69 72 58 68 42 23 15 3 353 333 282 274 281 282 292 297 296 298 294 290 285 277 274 299 292 286 284 280 276 274 279 289 290 289 293 295 295
70 54 37 35 24 13 347 340 335 323 319 301 288 293 298 300 296 297 289 303 299 295 289 276 301 305 286 276 265 263 271 276 285 292 292 294 297 297
63 46 29 4 357 349 339 324 319 312 302 290 290 296 294 291 292 277 275 281 298 305 341 311 311 316 304 280 314 305 291 281 283 287 291 294 295 291
27 14 359 319 329 321 317 291 279 300 284 292 290 287 282 273 267 261 266 270 277 264 280 305 307 299 276 301 289 296 287 283 277 286 290 291 290 286
336 293 282 288 307 305 304 281 287 316 281 279 278 280 289 292 294 295 289 276 266 266 282 285 275 283 282 284 289 288 289 289 282 281 278 277 279 282
242 247 286 298 295 293 280 298 308 276 282 286 293 300 309 309 307 295 288 279 269 269 267 265 260 270 268 273 281 288 296 288 282 280 272 281 279 274
269 272 282 300 296 294 295 303 301 307 309 303 301 302 301 293 291 291 290 294 289 287 283 273 267 266 269 268 277 286 289 287 289 285 284 281 277 268
310 302 307 313 312 317 316 314 309 300 293 290 287 290 289 287 284 288 286 288 280 288 289 292 280 269 266 273 276 278 286 281 281 285 286 284 278 273
289 299 302 306 303 304 301 299 295 289 285 290 286 282 284 287 288 289 285 277 278 282 284 289 291 289 279 260 258 274 272 275 281 281 279 281 288 286
269 278 280 281 281 283 283 286 289 290 297 280 281 282 282 283 285 280 280 279 279 281 282 288 286 286 289 282 279 267 277 281 289 287 280 276 275 278
253 262 267 271 276 278 279 279 284 286 282 281 278 276 276 278 278 273 276 277 280 284 285 281 276 273 271 286 298 283 275 278 278 278 281 276 268 273
254 257 254 260 266 270 272 275 275 277 280 281 277 275 272 272 270 272 275 277 279 279 277 276 275 279 283 287 280 285 280 260 267 271 279 273 278 288
253 256 260 259 260 263 269 271 275 274 273 270 268 270 268 266 270 275 275 279 278 276 276 281 285 281 273 270 277 282 287 293 273 263 269 275 281 292
243 249 257 260 260 264 264 269 268 270 268 268 269 268 268 271 269 270 273 274 275 277 279 282 282 276 275 274 272 275 270 283 290 297 297 286 296 293